Regional Weather Roundup
Issued by NWS

Home | Current Version | Previous Version | Graphics & Text | Print | Product List | Glossary On
Versions: 1 2 3 4 5 6 7 8 9 10 11 12 13 14 15 16 17 18 19 20 21 22 23 24 25 26 27 28 29 30 31 32 33 34 35 36 37 38 39 40 41 42 43 44 45 46 47 48 49 50
000
ASUS43 KFSD 011210
RWRSD

WEATHER ROUNDUP FOR SOUTH DAKOTA
NATIONAL WEATHER SERVICE SIOUX FALLS SD
700 AM CDT MON SEP 01 2014

NOTE: "FAIR" INDICATES FEW OR NO CLOUDS BELOW 12,000 FEET WITH NO
SIGNIFICANT WEATHER AND/OR OBSTRUCTIONS TO VISIBILITY.


SDZ001>005-009-010-012>017-011300-
NORTHWEST AND NORTH CENTRAL SOUTH DAKOTA

CITY           SKY/WX    TMP DP  RH WIND       PRES   REMARKS
BUFFALO          N/A     49  45  86 W9        29.81S
FAITH            N/A     52  48  86 W10       29.84F
MOBRIDGE       CLEAR     50  49  96 CALM      29.79R
$$

SDZ012>016-024>037-041>051-057-063-072>074-011300-
SOUTHWEST AND SOUTH CENTRAL SOUTH DAKOTA

CITY           SKY/WX    TMP DP  RH WIND       PRES   REMARKS
RAPID CTY ARPT PTCLDY    49  45  86 W5        29.91R
PIERRE         CLEAR     53  51  93 W8        29.82R
CUSTER         MOCLDY    45  40  82 NW5       29.99F
ELLSWORTH AFB  PTCLDY    52  46  82 W6        29.90R
PHILIP         CLEAR     49  47  93 W7        29.88R
PINE RIDGE     CLEAR     47  47 100 CALM      29.94S
WINNER         FAIR      55  51  86 W8        29.86R
$$

SDZ004>011-016>023-039-040-011300-
NORTHEAST SOUTH DAKOTA

CITY           SKY/WX    TMP DP  RH WIND       PRES   REMARKS
ABERDEEN       CLEAR     53  53 100 W9        29.77R
WATERTOWN      MOCLDY    61  60  97 N6        29.73S
SISSETON         N/A     54  54 100 N3        29.71R
$$

SDZ017-020-022-023-036>040-048>070-011300-
SOUTHEAST SOUTH DAKOTA

CITY           SKY/WX    TMP DP  RH WIND       PRES   REMARKS
SIOUX FALLS    PTCLDY    61  59  93 NW3       29.74R
HURON          CLEAR     56  54  93 W3        29.75S
CHAMBERLAIN    CLEAR     54  53  94 W6        29.83R
MITCHELL       CLEAR     60  58  92 W6        29.77R
YANKTON        CLEAR     61  57  88 NW10      29.77R
$$

ABBREVIATIONS USED IN REMARKS
   TC - TEMPERATURE IN CELSIUS
  WCI - WIND CHILL INDEX
   HX - HEAT INDEX
  VSB - VISIBILITY




USA.gov is the U.S. government's official web portal to all federal, state and local government web resources and services.